sat.trackr.live / text

‹ back to catalog

2024-153C

NORAD 60747 · 2024-153C

PAYLOAD ACTIVE UNKNOWN

§ Identity

Operator
Country
PRC
Launch date
2024-08-29
Launch site
YSLA
Launch vehicle
Mass (kg)
RCS (m²)

External: N2YO · Heavens-Above · Gunter

§ Orbital elements

Epoch: 2026-05-25T04:12:59.011200Z

Period
93.49 min
Inclination
97.6743°
Eccentricity
0.0008816
Mean motion
15.40227736 rev/d
Perigee alt
439.4 km
Apogee alt
451.5 km
Semi-major
6,823.6 km
B*
5.9576e-4
RAAN
286.4401°
Arg perigee
226.0044°
Mean anomaly
134.0476°
Rev number
9,660

§ Raw data

2024-153C1 60747U 24153C   26145.17568300  .00023935  00000+0  59576-3 0  99932 60747  97.6743 286.4401 0008816 226.0044 134.0476 15.40227736 96601

JSON: /api/v1/satellites/60747 · /tle

For live sub-satellite position, see the globe view (requires WebGL).

§ Visibility from observer

Set your observer location to see the next 7 days of passes ≥ 10°. The values pass through the URL so the page stays shareable.

No JS? Fill the form by hand. The geolocation button needs JavaScript.